SCP
0 0 0 0 0 0 0 0 0 0 0 0 0 0 0 0 0 0 0 0 0 0 0 0 0 0 0 0 0 0 0 0 0 0 0 0 0 0 0 0 0 0 0
0 0 0 -0 -0 0 0 0 0 0 0 0 0 0 0 0 0 0 0 0 0 0 0 0 0 0 0 0 0 0 0 0 0 0 0 0 0 0 0 0 0 0 0
0 0 0 0 0 0 0 0 0 0 0 0 0 0 0 0 0 0 0 0 0 0 0 0 0 0 0 0 0 0 0 0 0 0 0 0 0 0 0 0 0 0 0
0 0 0 0 0 0 0 0 0 0 0 0 0 0 0 0 0 0 0 0 0 0 0 0 0 0 0 0 0 0 0 0 0 0 0 0 0 0 0 0 0 0 0
0 0 0 0 0 0 0 0 0 0 0 0 0 0 0 0 0 0 0 0 0 0 0 0 0 0 0 0 0 0 0 0 0 0 0 0 0 0 0 0 0 0 0
0 0 0 0 0 0 0 0 0 0 0 0 0 0 0 0 0 0 0 0 0 0 0 0 0 0 0 0 0 0 0 0 0 0 0 0 0 0 0 0 0 0 0
0 0 0 0 0 0 0 0 0 0 0 0 0 0 0 0 0 0 0 0 0 0 0 0 0 0 0 0 0 0 0 0 0 0 0 0 0 0 0 0 0 0 0
0 0 0 0 0 0 0 0 0 0 0 0 0 0 0 0 0 0 0 0 0 0 0 0 0 0 0 0 0 0 0 0 0 0 0 0 0 0 0 0 0 0 0
-0 0 0 0 0 0 0 0 0 0 0 0 0 0 0 0 0 0 0 0 0 0 0 0 0 0 0 0 0 0 0 0 0 0 0 0 0 0 0 0 0 0 0
-0 -0 -0 0 0 0 -0 -0 -0 0 0 0 0 0 0 0 0 0 0 0 0 0 0 0 0 0 0 0 0 0 0 0 0 0 0 0 0 0 0 0 0 0 0
-0 -0 -0 -0 -0 -0 0 0 -0 0 0 0 0 0 0 0 0 0 0 0 0 0 0 0 0 0 0 0 0 0 0 0 0 0 0 0 0 0 0 0 0 0 0
0 -0 -0 -0 -0 -0 -0 -0 -0 -0 0 0 0 0 0 0 0 0 0 0 0 0 0 0 0 0 0 0 0 0 0 0 0 0 0 0 0 0 0 0 0 0 0
0 0 -0 -0 0 -0 -0 -0 -0 -0 0 0 0 0 0 0 0 0 0 0 0 0 0 0 0 0 0 0 0 0 0 0 0 0 0 0 0 0 0 0 0 0 0
0 0 -0 -0 -0 -0 -0 -0 -0 -0 -0 0 0 0 0 0 0 0 0 0 0 0 0 0 0 0 0 0 0 0 0 0 0 0 0 0 0 0 0 0 0 0 0
0 0 0 -0 -0 -0 -0 0 0 0 0 0 0 0 0 0 0 0 0 0 0 0 0 0 0 0 0 0 0 0 0 0 0 0 0 0 0 0 0 0 0 0 0
0 0 0 0 0 0 0 0 0 0 0 0 0 0 0 0 0 0 0 0 0 0 0 0 0 0 0 0 0 0 0 0 0 0 0 0 0 0 0 0 0 0 0
0 0 0 0 0 0 0 0 0 0 0 0 0 0 0 0 0 0 0 -0 0 0 0 0 0 0 0 0 0 0 0 0 0 0 0 0 0 0 0 0 0 0 0
0 0 0 0 0 0 0 0 0 0 0 0 0 0 0 0 0 0 0 0 0 0 0 0 0 0 0 0 0 0 0 0 0 0 0 0 0 0 0 0 0 0 0
0 0 0 0 0 0 0 0 0 0 0 0 0 0 0 0 0 0 0 0 0 0 0 0 0 0 0 0 0 0 0 0 0 0 0 0 0 0 0 0 0 0 0
0 0 0 0 0 0 0 0 0 0 0 0 0 0 0 0 0 0 0 0 0 0 0 0 0 0 0 0 0 0 0 0 0 0 0 0 0 0 0 0 0 0 0
0 0 -0 0 0 0 0 0 0 0 0 0 0 0 0 0 0 0 0 0 0 0 0 0 0 0 0 0 0 0 0 0 0 0 0 0 0 0 0 0 0 0 0
0 0 0 -0 -0 -0 -0 -0 0 -0 0 0 0 0 0 0 0 0 0 0 0 0 0 0 0 0 0 0 0 0 0 0 0 0 0 0 0 0 0 0 0 0 0
0 0 0 0 0 0 0 0 0 0 0 0 0 0 0 0 0 0 0 0 0 0 0 0 0 0 0 0 0 0 0 0 0 0 0 0 0 0 0 0 0 0 0
0 0 0 0 0 0 0 0 0 0 0 0 0 0 0 0 0 0 0 0 0 0 0 0 0 0 0 0 0 0 0 0 0 0 0 0 0 0 0 0 0 0 0
0 0 0 0 0 0 0 -0 -0 0 0 0 0 0 0 0 0 0 0 0 0 0 0 0 0 0 0 0 0 0 0 0 0 0 0 0 0 0 0 0 0 0 0
-0 -0 -0 -0 0 0 0 0 -0 -0 -0 0 0 0 0 0 0 0 0 0 0 0 0 0 0 0 0 0 0 0 0 0 0 0 0 0 0 0 0 0 0 0 0
Wind_Speed_500mb
47 48 50 49 46 47 54 61 69 73 76 83 85 88 90 92 100 104 109 107 104 101 98 95 91 85 82 78 71 65 62 57 53 48 43 39 35 29 29 32 35 37 38
55 51 49 52 53 50 50 49 58 71 76 82 86 91 93 94 97 104 110 113 110 110 105 101 97 91 88 81 77 72 67 61 56 52 50 44 39 35 34 37 40 42 41
61 59 58 57 61 60 57 53 51 56 67 78 87 92 96 98 98 102 109 112 113 114 110 107 105 99 97 89 86 79 72 65 62 57 54 48 47 43 41 43 44 46 42
64 64 63 64 66 69 68 60 60 58 61 70 80 88 96 99 102 103 106 115 118 120 118 112 112 105 104 94 91 85 77 74 68 62 58 53 50 47 47 46 46 46 40
67 69 70 66 68 71 73 71 61 59 62 66 70 78 87 94 102 108 109 114 124 122 124 120 117 110 102 99 94 91 84 79 75 71 65 58 54 52 45 40 40 39 37
74 72 73 71 68 72 75 76 77 68 63 64 68 74 81 90 94 99 108 110 122 121 126 124 122 116 105 101 97 89 83 84 83 77 69 62 55 49 40 35 32 36 32
76 82 85 84 82 73 75 78 75 78 73 63 66 69 80 84 86 94 101 103 112 121 122 126 126 126 112 105 101 92 89 87 80 72 68 61 54 48 38 36 34 37 39
73 78 85 92 95 92 87 80 74 71 73 73 61 66 76 82 88 88 94 93 95 110 122 124 127 130 118 113 107 99 96 88 84 78 70 61 52 44 39 35 35 36 40
80 83 85 90 96 99 99 94 83 79 71 75 72 66 74 77 79 86 85 80 90 97 115 125 125 128 119 112 102 98 90 87 79 74 64 57 49 41 38 38 34 35 40
91 91 92 97 101 103 105 106 101 89 85 71 76 76 71 71 71 76 71 81 87 98 110 121 117 113 105 105 104 100 96 86 75 70 60 53 52 44 36 36 36 37 35
91 93 101 101 103 112 109 111 104 99 88 86 76 75 78 64 71 69 67 77 93 100 108 111 110 110 98 100 103 98 89 78 73 64 58 56 51 41 42 39 36 35 33
106 113 109 104 110 109 116 113 108 98 93 84 83 76 74 75 65 63 69 73 89 106 99 96 100 100 95 101 100 86 80 74 69 61 63 57 50 45 41 36 34 34 34
120 125 125 124 113 111 110 114 108 94 89 92 84 80 72 77 70 59 63 67 96 97 88 90 90 87 93 93 92 84 77 80 67 72 62 55 51 46 40 36 36 35 34
127 132 128 123 123 113 107 108 104 93 73 81 83 77 74 80 76 62 63 63 94 93 85 75 76 77 86 87 77 65 81 73 73 70 63 59 53 46 39 37 35 36 40
119 117 112 105 102 103 102 98 91 89 67 75 81 74 74 77 77 63 57 69 95 100 84 66 65 74 79 76 77 80 76 75 77 68 62 55 48 45 38 36 35 34 39
104 101 91 87 88 85 89 100 88 75 70 71 75 71 74 68 65 59 46 66 83 96 82 79 79 86 93 95 95 89 78 77 73 66 59 53 50 44 37 32 31 32 38
91 92 91 86 82 79 78 77 89 82 65 54 64 68 66 73 61 53 44 52 82 84 91 87 86 95 98 101 94 90 89 80 66 59 54 51 45 37 32 26 27 33 38
85 84 86 87 83 81 77 76 71 73 72 53 50 53 60 58 67 49 42 45 72 81 91 90 94 92 95 94 92 94 89 75 67 59 53 46 39 31 25 23 24 32 40
81 84 83 84 84 81 78 74 74 73 68 60 54 51 40 57 56 57 38 62 75 85 88 88 92 84 83 88 91 88 78 70 60 55 47 40 34 27 23 22 25 31 40
77 75 74 76 76 75 73 72 67 64 63 45 55 49 38 38 54 61 47 58 59 82 85 86 82 74 77 82 79 77 71 59 57 49 42 37 31 25 23 22 25 32 39
71 72 71 73 73 70 66 62 57 54 40 46 48 42 34 36 59 58 49 58 70 75 86 73 63 66 63 64 68 67 55 52 46 40 37 32 28 23 23 22 27 33 40
64 64 63 64 63 64 56 42 38 36 38 42 38 31 22 40 55 55 53 56 58 55 49 58 55 52 52 60 60 50 47 42 39 35 30 26 24 21 22 22 29 37 43
51 51 50 46 42 33 31 32 33 33 30 25 20 21 24 37 46 45 45 46 46 50 50 46 39 47 52 48 44 41 34 34 32 29 27 24 20 20 22 25 32 40 46
42 41 39 35 31 25 17 13 11 10 10 11 13 18 20 33 29 33 38 42 46 43 35 37 43 47 43 42 39 33 34 31 26 24 23 22 21 21 24 30 36 43 50
39 38 37 36 34 29 23 16 8 6 6 8 14 18 22 26 28 36 42 44 42 38 40 45 44 42 41 33 29 30 28 25 23 22 21 22 22 23 27 33 38 46 53
42 40 39 38 37 34 32 29 25 20 19 19 19 20 28 38 46 49 49 45 44 45 46 42 38 31 27 26 24 23 23 22 21 21 20 23 26 29 32 38 41 50 57
Wind_Direction_500mb
348 344 334 325 315 299 287 284 281 270 262 257 252 247 243 239 238 236 237 236 235 233 233 234 234 233 234 234 233 233 233 232 232 236 242 251 262 273 285 293 298 302 306
347 346 339 331 326 312 300 288 278 277 272 261 255 251 248 245 240 237 235 236 235 235 234 233 233 232 232 234 236 235 234 234 232 235 241 246 252 254 264 274 284 293 299
340 338 342 340 336 328 314 299 284 275 269 266 261 255 251 248 245 240 238 237 236 237 234 235 235 233 232 232 234 234 234 235 235 235 239 241 245 252 259 267 275 282 289
343 342 338 340 340 339 329 313 300 289 277 265 259 258 255 252 249 246 242 240 238 236 236 235 235 234 235 233 233 234 235 235 236 236 238 239 241 248 257 266 273 284 293
343 335 335 335 333 332 334 331 312 297 288 282 272 263 258 254 251 247 243 241 240 238 238 235 235 235 236 238 234 232 232 233 235 235 234 234 239 243 253 264 275 286 296
340 337 333 329 331 325 324 327 332 317 300 287 278 271 264 259 257 254 249 246 245 242 240 238 237 236 232 234 235 234 237 236 235 235 235 234 238 244 249 261 274 283 297
336 337 338 333 327 326 321 317 320 324 317 298 285 277 270 264 259 258 254 248 248 248 245 241 237 237 232 230 230 231 232 232 233 240 239 239 237 243 245 253 265 278 282
331 331 332 332 330 327 321 317 311 308 314 306 295 283 274 266 264 256 253 251 248 249 248 246 243 240 234 228 224 226 228 230 234 236 237 236 236 239 246 253 264 273 285
324 324 324 325 325 325 321 315 314 308 300 308 304 289 278 270 269 262 253 252 249 246 249 245 242 240 234 228 226 226 228 228 228 233 232 234 240 238 245 253 265 272 286
316 316 317 318 318 318 319 316 312 309 301 292 293 291 281 277 269 264 257 245 247 246 242 240 240 242 238 229 226 226 225 226 225 224 228 233 235 236 242 254 259 271 284
307 306 308 309 311 311 310 309 309 303 298 290 281 285 288 279 271 264 257 241 243 242 241 241 238 237 232 226 227 225 227 227 225 224 227 231 237 237 241 248 258 268 278
304 303 301 301 302 302 302 302 302 300 295 288 283 275 277 282 270 262 252 243 244 241 242 242 241 234 226 221 225 222 220 219 219 221 227 230 230 234 241 248 257 268 279
301 301 300 300 296 295 295 295 296 294 289 287 280 278 273 277 280 266 252 234 230 235 241 242 240 231 223 219 222 218 214 217 215 225 222 228 229 233 238 246 257 269 278
298 298 298 298 297 295 291 290 290 288 278 275 280 277 277 274 273 270 247 226 227 229 234 234 231 220 214 213 200 205 219 217 223 215 218 222 223 231 238 247 255 269 279
297 296 296 295 296 295 291 286 284 279 269 268 269 273 273 270 269 274 257 222 222 222 224 220 209 196 197 200 204 199 209 219 210 212 213 216 226 233 236 246 258 273 289
297 296 294 293 292 290 290 290 282 277 274 262 260 258 267 271 272 269 261 230 218 218 212 215 209 198 200 201 200 200 210 211 215 211 210 218 223 229 235 247 264 279 292
297 297 296 293 289 287 286 284 289 287 280 258 255 254 252 259 263 261 256 228 215 212 210 211 211 200 199 200 204 209 206 209 212 208 213 216 220 224 238 252 273 292 301
301 299 296 293 289 287 284 283 282 284 289 284 260 259 250 247 249 247 230 216 206 203 213 207 203 206 208 210 209 208 208 207 202 208 211 215 220 230 243 264 287 301 308
306 300 298 294 290 288 284 278 276 277 274 269 267 267 256 240 232 238 226 212 208 197 205 205 212 211 213 213 212 210 209 199 203 205 208 214 223 234 246 267 291 307 315
312 308 306 302 299 294 289 285 285 280 278 268 261 271 274 239 224 210 216 210 213 200 203 202 206 212 214 212 209 206 199 196 200 203 209 215 225 238 254 275 300 312 318
315 313 312 309 303 301 296 290 285 279 277 264 269 277 265 235 215 216 213 208 214 204 201 204 210 218 219 208 200 195 192 197 200 207 211 220 229 242 260 285 305 313 319
321 320 320 316 316 300 298 298 293 286 274 277 282 277 235 217 208 207 209 212 212 209 208 208 208 216 203 193 190 185 189 197 207 212 217 225 237 248 266 290 310 319 324
336 336 335 334 332 333 319 310 301 291 288 286 279 252 238 207 202 207 211 206 195 191 189 193 202 188 179 173 173 188 196 205 209 213 224 234 246 259 278 304 315 323 326
353 355 357 358 358 357 351 334 315 306 293 273 246 227 205 184 194 188 178 168 166 167 175 178 173 171 165 173 184 183 196 206 211 219 231 243 255 269 291 305 315 325 323
12 15 19 23 27 31 31 38 58 110 145 164 169 168 165 162 160 156 153 153 154 158 161 160 157 160 173 177 180 192 200 210 220 233 244 255 266 275 290 304 314 316 316
29 31 34 37 42 48 54 58 64 73 85 100 116 131 139 142 140 142 141 143 147 148 146 152 164 166 171 180 189 199 208 217 228 242 258 266 272 282 294 300 305 311 316
Wind_Speed_850mb
47 48 50 49 46 47 54 61 69 73 76 83 85 88 90 92 100 104 109 107 104 101 98 95 91 85 82 78 71 65 62 57 53 48 43 39 35 29 29 32 35 37 38
55 51 49 52 53 50 50 49 58 71 76 82 86 91 93 94 97 104 110 113 110 110 105 101 97 91 88 81 77 72 67 61 56 52 50 44 39 35 34 37 40 42 41
61 59 58 57 61 60 57 53 51 56 67 78 87 92 96 98 98 102 109 112 113 114 110 107 105 99 97 89 86 79 72 65 62 57 54 48 47 43 41 43 44 46 42
64 64 63 64 66 69 68 60 60 58 61 70 80 88 96 99 102 103 106 115 118 120 118 112 112 105 104 94 91 85 77 74 68 62 58 53 50 47 47 46 46 46 40
67 69 70 66 68 71 73 71 61 59 62 66 70 78 87 94 102 108 109 114 124 122 124 120 117 110 102 99 94 91 84 79 75 71 65 58 54 52 45 40 40 39 37
74 72 73 71 68 72 75 76 77 68 63 64 68 74 81 90 94 99 108 110 122 121 126 124 122 116 105 101 97 89 83 84 83 77 69 62 55 49 40 35 32 36 32
76 82 85 84 82 73 75 78 75 78 73 63 66 69 80 84 86 94 101 103 112 121 122 126 126 126 112 105 101 92 89 87 80 72 68 61 54 48 38 36 34 37 39
73 78 85 92 95 92 87 80 74 71 73 73 61 66 76 82 88 88 94 93 95 110 122 124 127 130 118 113 107 99 96 88 84 78 70 61 52 44 39 35 35 36 40
80 83 85 90 96 99 99 94 83 79 71 75 72 66 74 77 79 86 85 80 90 97 115 125 125 128 119 112 102 98 90 87 79 74 64 57 49 41 38 38 34 35 40
91 91 92 97 101 103 105 106 101 89 85 71 76 76 71 71 71 76 71 81 87 98 110 121 117 113 105 105 104 100 96 86 75 70 60 53 52 44 36 36 36 37 35
91 93 101 101 103 112 109 111 104 99 88 86 76 75 78 64 71 69 67 77 93 100 108 111 110 110 98 100 103 98 89 78 73 64 58 56 51 41 42 39 36 35 33
106 113 109 104 110 109 116 113 108 98 93 84 83 76 74 75 65 63 69 73 89 106 99 96 100 100 95 101 100 86 80 74 69 61 63 57 50 45 41 36 34 34 34
120 125 125 124 113 111 110 114 108 94 89 92 84 80 72 77 70 59 63 67 96 97 88 90 90 87 93 93 92 84 77 80 67 72 62 55 51 46 40 36 36 35 34
127 132 128 123 123 113 107 108 104 93 73 81 83 77 74 80 76 62 63 63 94 93 85 75 76 77 86 87 77 65 81 73 73 70 63 59 53 46 39 37 35 36 40
119 117 112 105 102 103 102 98 91 89 67 75 81 74 74 77 77 63 57 69 95 100 84 66 65 74 79 76 77 80 76 75 77 68 62 55 48 45 38 36 35 34 39
104 101 91 87 88 85 89 100 88 75 70 71 75 71 74 68 65 59 46 66 83 96 82 79 79 86 93 95 95 89 78 77 73 66 59 53 50 44 37 32 31 32 38
91 92 91 86 82 79 78 77 89 82 65 54 64 68 66 73 61 53 44 52 82 84 91 87 86 95 98 101 94 90 89 80 66 59 54 51 45 37 32 26 27 33 38
85 84 86 87 83 81 77 76 71 73 72 53 50 53 60 58 67 49 42 45 72 81 91 90 94 92 95 94 92 94 89 75 67 59 53 46 39 31 25 23 24 32 40
81 84 83 84 84 81 78 74 74 73 68 60 54 51 40 57 56 57 38 62 75 85 88 88 92 84 83 88 91 88 78 70 60 55 47 40 34 27 23 22 25 31 40
77 75 74 76 76 75 73 72 67 64 63 45 55 49 38 38 54 61 47 58 59 82 85 86 82 74 77 82 79 77 71 59 57 49 42 37 31 25 23 22 25 32 39
71 72 71 73 73 70 66 62 57 54 40 46 48 42 34 36 59 58 49 58 70 75 86 73 63 66 63 64 68 67 55 52 46 40 37 32 28 23 23 22 27 33 40
64 64 63 64 63 64 56 42 38 36 38 42 38 31 22 40 55 55 53 56 58 55 49 58 55 52 52 60 60 50 47 42 39 35 30 26 24 21 22 22 29 37 43
51 51 50 46 42 33 31 32 33 33 30 25 20 21 24 37 46 45 45 46 46 50 50 46 39 47 52 48 44 41 34 34 32 29 27 24 20 20 22 25 32 40 46
42 41 39 35 31 25 17 13 11 10 10 11 13 18 20 33 29 33 38 42 46 43 35 37 43 47 43 42 39 33 34 31 26 24 23 22 21 21 24 30 36 43 50
39 38 37 36 34 29 23 16 8 6 6 8 14 18 22 26 28 36 42 44 42 38 40 45 44 42 41 33 29 30 28 25 23 22 21 22 22 23 27 33 38 46 53
42 40 39 38 37 34 32 29 25 20 19 19 19 20 28 38 46 49 49 45 44 45 46 42 38 31 27 26 24 23 23 22 21 21 20 23 26 29 32 38 41 50 57
Wind_Direction_850mb
348 344 334 325 315 299 287 284 281 270 262 257 252 247 243 239 238 236 237 236 235 233 233 234 234 233 234 234 233 233 233 232 232 236 242 251 262 273 285 293 298 302 306
347 346 339 331 326 312 300 288 278 277 272 261 255 251 248 245 240 237 235 236 235 235 234 233 233 232 232 234 236 235 234 234 232 235 241 246 252 254 264 274 284 293 299
340 338 342 340 336 328 314 299 284 275 269 266 261 255 251 248 245 240 238 237 236 237 234 235 235 233 232 232 234 234 234 235 235 235 239 241 245 252 259 267 275 282 289
343 342 338 340 340 339 329 313 300 289 277 265 259 258 255 252 249 246 242 240 238 236 236 235 235 234 235 233 233 234 235 235 236 236 238 239 241 248 257 266 273 284 293
343 335 335 335 333 332 334 331 312 297 288 282 272 263 258 254 251 247 243 241 240 238 238 235 235 235 236 238 234 232 232 233 235 235 234 234 239 243 253 264 275 286 296
340 337 333 329 331 325 324 327 332 317 300 287 278 271 264 259 257 254 249 246 245 242 240 238 237 236 232 234 235 234 237 236 235 235 235 234 238 244 249 261 274 283 297
336 337 338 333 327 326 321 317 320 324 317 298 285 277 270 264 259 258 254 248 248 248 245 241 237 237 232 230 230 231 232 232 233 240 239 239 237 243 245 253 265 278 282
331 331 332 332 330 327 321 317 311 308 314 306 295 283 274 266 264 256 253 251 248 249 248 246 243 240 234 228 224 226 228 230 234 236 237 236 236 239 246 253 264 273 285
324 324 324 325 325 325 321 315 314 308 300 308 304 289 278 270 269 262 253 252 249 246 249 245 242 240 234 228 226 226 228 228 228 233 232 234 240 238 245 253 265 272 286
316 316 317 318 318 318 319 316 312 309 301 292 293 291 281 277 269 264 257 245 247 246 242 240 240 242 238 229 226 226 225 226 225 224 228 233 235 236 242 254 259 271 284
307 306 308 309 311 311 310 309 309 303 298 290 281 285 288 279 271 264 257 241 243 242 241 241 238 237 232 226 227 225 227 227 225 224 227 231 237 237 241 248 258 268 278
304 303 301 301 302 302 302 302 302 300 295 288 283 275 277 282 270 262 252 243 244 241 242 242 241 234 226 221 225 222 220 219 219 221 227 230 230 234 241 248 257 268 279
301 301 300 300 296 295 295 295 296 294 289 287 280 278 273 277 280 266 252 234 230 235 241 242 240 231 223 219 222 218 214 217 215 225 222 228 229 233 238 246 257 269 278
298 298 298 298 297 295 291 290 290 288 278 275 280 277 277 274 273 270 247 226 227 229 234 234 231 220 214 213 200 205 219 217 223 215 218 222 223 231 238 247 255 269 279
297 296 296 295 296 295 291 286 284 279 269 268 269 273 273 270 269 274 257 222 222 222 224 220 209 196 197 200 204 199 209 219 210 212 213 216 226 233 236 246 258 273 289
297 296 294 293 292 290 290 290 282 277 274 262 260 258 267 271 272 269 261 230 218 218 212 215 209 198 200 201 200 200 210 211 215 211 210 218 223 229 235 247 264 279 292
297 297 296 293 289 287 286 284 289 287 280 258 255 254 252 259 263 261 256 228 215 212 210 211 211 200 199 200 204 209 206 209 212 208 213 216 220 224 238 252 273 292 301
301 299 296 293 289 287 284 283 282 284 289 284 260 259 250 247 249 247 230 216 206 203 213 207 203 206 208 210 209 208 208 207 202 208 211 215 220 230 243 264 287 301 308
306 300 298 294 290 288 284 278 276 277 274 269 267 267 256 240 232 238 226 212 208 197 205 205 212 211 213 213 212 210 209 199 203 205 208 214 223 234 246 267 291 307 315
312 308 306 302 299 294 289 285 285 280 278 268 261 271 274 239 224 210 216 210 213 200 203 202 206 212 214 212 209 206 199 196 200 203 209 215 225 238 254 275 300 312 318
315 313 312 309 303 301 296 290 285 279 277 264 269 277 265 235 215 216 213 208 214 204 201 204 210 218 219 208 200 195 192 197 200 207 211 220 229 242 260 285 305 313 319
321 320 320 316 316 300 298 298 293 286 274 277 282 277 235 217 208 207 209 212 212 209 208 208 208 216 203 193 190 185 189 197 207 212 217 225 237 248 266 290 310 319 324
336 336 335 334 332 333 319 310 301 291 288 286 279 252 238 207 202 207 211 206 195 191 189 193 202 188 179 173 173 188 196 205 209 213 224 234 246 259 278 304 315 323 326
353 355 357 358 358 357 351 334 315 306 293 273 246 227 205 184 194 188 178 168 166 167 175 178 173 171 165 173 184 183 196 206 211 219 231 243 255 269 291 305 315 325 323
12 15 19 23 27 31 31 38 58 110 145 164 169 168 165 162 160 156 153 153 154 158 161 160 157 160 173 177 180 192 200 210 220 233 244 255 266 275 290 304 314 316 316
29 31 34 37 42 48 54 58 64 73 85 100 116 131 139 142 140 142 141 143 147 148 146 152 164 166 171 180 189 199 208 217 228 242 258 266 272 282 294 300 305 311 316